Ely, NV

10:34 AM PST on January 17, 2017 (GMT -0800)
Ely

Weather History for KELY - March, 2014

Change the Weather History Date:

Sunday, March 2, 2014

  Actual Average Record
Temperature  
Mean Temperature 37 °F 33 °F  
Max Temperature 48 °F 47 °F 61 °F (1994)
Min Temperature 26 °F 20 °F -10 °F (1971)
Degree Days  
Heating Degree Days 28 32  
Month to date heating degree days 55 64  
Since 1 July heating degree days 5074 5401  
Cooling Degree Days 0 0  
Month to date cooling degree days 0 0  
Year to date cooling degree days 0 0  
Moisture  
Dew Point 29 °F    
Average Humidity 73    
Maximum Humidity 100    
Minimum Humidity 45    
Precipitation  
Precipitation 0.00 in 0.03 in 0.48 in (1981)
Month to date precipitation 0.02 0.06  
Year to date precipitation 1.75 1.51  
Snow  
Snow 0.00 in 0.30 in 7.70 in (1974)
Month to date snowfall 0.4 0.6  
Since 1 July snowfall 39.5 35.5  
Snow Depth 0.00 in    
Sea Level Pressure  
Sea Level Pressure 30.00 in    
Wind  
Wind Speed 8 mph (South)    
Max Wind Speed 21 mph    
Max Gust Speed 25 mph    
Visibility 10 miles    
Events      
T = Trace of Precipitation, MM = Missing Value Source: NWS Daily Summary

Daily Weather History Graph

Daily Weather History Graph

Search for Another Location

Airport or City:

Trip Planner

Search our weather history database for the weather conditions in past years. The results will help you decide how hot, cold, wet, or windy it might be!

Date:

Astronomy

Mar. 02, 2014 Rise Set
Actual Time 6:10 AM PST 5:32 PM PST
Civil Twilight 5:43 AM PST 5:59 PM PST
Nautical Twilight 5:12 AM PST 6:30 PM PST
Astronomical Twilight 4:41 AM PST 7:02 PM PST
Moon 6:45 AM PST (3/2) 7:32 PM PST (3/2)
Length of Visible Light 12h 16m
Length of Day
11h 22m
Waxing Crescent, 3% of the Moon is Illuminated
Mar 2
Waxing Crescent
Mar 8
First Quarter
Mar 16
Full
Mar 23
Last Quarter
Mar 30
New

Hourly Weather History & Observations

Time (PST) Temp. Windchill Dew Point Humidity Pressure Visibility Wind Dir Wind Speed Gust Speed Precip Events Conditions
12:53 AM 30.0 °F 26.5 °F 28.9 °F 96% 29.87 in 10.0 mi SSW 3.5 mph - N/A   Clear
1:53 AM 28.9 °F - 28.0 °F 96% 29.89 in 10.0 mi Calm Calm - N/A   Scattered Clouds
2:53 AM 28.0 °F 20.0 °F 27.0 °F 96% 29.89 in 10.0 mi South 8.1 mph - N/A   Clear
3:53 AM 28.0 °F 20.0 °F 26.1 °F 92% 29.91 in 10.0 mi South 8.1 mph - N/A   Clear
4:53 AM 28.9 °F 21.1 °F 26.1 °F 89% 29.95 in 10.0 mi South 8.1 mph - N/A   Clear
5:53 AM 27.0 °F 19.5 °F 25.0 °F 92% 30.00 in 10.0 mi South 6.9 mph - N/A   Clear
6:53 AM 26.1 °F 18.4 °F 24.1 °F 92% 30.04 in 10.0 mi SSE 6.9 mph - N/A   Clear
7:53 AM 33.1 °F - 28.9 °F 85% 30.03 in 10.0 mi Calm Calm - N/A   Clear
8:53 AM 37.0 °F 28.9 °F 28.0 °F 70% 30.02 in 10.0 mi South 12.7 mph - N/A   Clear
9:53 AM 41.0 °F 36.4 °F 30.0 °F 65% 29.99 in 10.0 mi SSW 6.9 mph - N/A   Clear
10:53 AM 45.0 °F 38.5 °F 28.9 °F 53% 29.97 in 10.0 mi SSE 13.8 mph - N/A   Clear
11:53 AM 46.0 °F 39.3 °F 27.0 °F 47% 29.96 in 10.0 mi SSE 16.1 mph 21.9 mph N/A   Mostly Cloudy
12:53 PM 46.0 °F 41.0 °F 30.0 °F 54% 29.96 in 10.0 mi SW 10.4 mph 17.3 mph N/A   Overcast
1:53 PM 46.0 °F 40.2 °F 28.9 °F 51% 29.96 in 10.0 mi South 12.7 mph - N/A   Clear
2:53 PM 45.0 °F 39.7 °F 28.9 °F 53% 29.99 in 10.0 mi South 10.4 mph 18.4 mph N/A   Overcast
3:53 PM 44.1 °F 40.1 °F 30.0 °F 58% 30.00 in 10.0 mi South 6.9 mph - N/A   Mostly Cloudy
4:53 PM 43.0 °F 37.2 °F 30.9 °F 62% 30.01 in 10.0 mi South 10.4 mph - N/A   Scattered Clouds
5:53 PM 41.0 °F 35.2 °F 30.9 °F 67% 30.06 in 10.0 mi SW 9.2 mph - N/A   Mostly Cloudy
6:53 PM 39.9 °F 36.7 °F 30.9 °F 70% 30.09 in 10.0 mi SSW 4.6 mph - N/A   Overcast
7:53 PM 37.9 °F 34.4 °F 30.0 °F 73% 30.08 in 10.0 mi SSW 4.6 mph - N/A   Overcast
8:53 PM 37.0 °F 30.4 °F 30.0 °F 76% 30.07 in 10.0 mi SSE 9.2 mph - N/A   Clear
9:53 PM 36.0 °F 28.5 °F 30.0 °F 79% 30.07 in 10.0 mi SSW 10.4 mph - N/A   Mostly Cloudy
10:53 PM 37.0 °F 31.6 °F 30.9 °F 79% 30.06 in 10.0 mi SSW 6.9 mph - N/A   Overcast
11:53 PM 33.1 °F - 30.0 °F 89% 30.07 in 10.0 mi Calm Calm - N/A   Overcast